Time,TemperatureF,DewpointF,PressureIn,WindDirection,WindDirectionDegrees,WindSpeedMPH,WindSpeedGustMPH,Humidity,HourlyPrecipIn,Conditions,Clouds,dailyrainin,SoftwareType,DateUTC
2013-03-15 00:02:00,23.0,19.0,29.83,NE,47,5.0,12.0,84,0.00,,,0.00,,2013-03-15 08:02:00,
2013-03-15 00:12:00,23.0,19.0,29.83,NE,47,5.0,12.0,84,0.00,,,0.00,,2013-03-15 08:12:00,
2013-03-15 00:22:00,23.0,19.0,29.83,ENE,62,6.0,16.0,83,0.00,,,0.00,,2013-03-15 08:22:00,
2013-03-15 00:32:00,23.0,18.0,29.83,ENE,65,5.0,12.0,82,0.00,,,0.00,,2013-03-15 08:32:00,
2013-03-15 00:41:00,23.0,18.0,29.83,ENE,65,5.0,12.0,82,0.00,,,0.00,,2013-03-15 08:41:00,
2013-03-15 00:52:00,23.0,18.0,29.83,NE,41,6.0,15.0,80,0.00,,,0.00,,2013-03-15 08:52:00,
2013-03-15 01:02:00,23.0,18.0,29.83,ENE,60,4.0,14.0,80,0.00,,,0.00,,2013-03-15 09:02:00,
2013-03-15 01:11:00,23.0,18.0,29.83,ENE,60,4.0,14.0,80,0.00,,,0.00,,2013-03-15 09:11:00,
2013-03-15 01:21:00,23.0,18.0,29.83,ENE,65,5.0,14.0,80,0.00,,,0.00,,2013-03-15 09:21:00,
2013-03-15 01:33:00,23.0,17.0,29.83,NE,55,5.0,13.0,79,0.00,,,0.00,,2013-03-15 09:33:00,
2013-03-15 01:42:00,23.0,17.0,29.83,NE,55,5.0,13.0,79,0.00,,,0.00,,2013-03-15 09:42:00,
2013-03-15 01:52:00,23.0,17.0,29.83,NE,55,5.0,13.0,79,0.00,,,0.00,,2013-03-15 09:52:00,
2013-03-15 02:02:00,23.0,17.0,29.82,ENE,58,4.0,12.0,77,0.00,,,0.00,,2013-03-15 10:02:00,
2013-03-15 02:12:00,23.0,17.0,29.82,ENE,58,4.0,12.0,77,0.00,,,0.00,,2013-03-15 10:12:00,
2013-03-15 02:23:00,23.0,17.0,29.82,East,90,4.0,12.0,76,0.00,,,0.00,,2013-03-15 10:23:00,
2013-03-15 02:32:00,23.0,16.0,29.81,ENE,73,5.0,9.0,75,0.00,,,0.00,,2013-03-15 10:32:00,
2013-03-15 02:41:00,23.0,16.0,29.81,ENE,73,5.0,9.0,75,0.00,,,0.00,,2013-03-15 10:41:00,
2013-03-15 02:52:00,23.0,16.0,29.81,ENE,72,5.0,9.0,75,0.00,,,0.00,,2013-03-15 10:52:00,
2013-03-15 03:02:00,23.0,16.0,29.80,ENE,61,4.0,13.0,74,0.00,,,0.00,,2013-03-15 11:02:00,
2013-03-15 03:12:00,23.0,16.0,29.80,ENE,61,4.0,13.0,74,0.00,,,0.00,,2013-03-15 11:12:00,
2013-03-15 03:22:00,23.0,16.0,29.80,ENE,61,4.0,13.0,74,0.00,,,0.00,,2013-03-15 11:22:00,
2013-03-15 03:32:00,23.0,16.0,29.80,East,79,4.0,12.0,74,0.00,,,0.00,,2013-03-15 11:32:00,
2013-03-15 03:42:00,23.0,16.0,29.80,East,79,4.0,12.0,74,0.00,,,0.00,,2013-03-15 11:42:00,
2013-03-15 03:52:00,22.0,15.0,29.80,East,86,3.0,8.0,75,0.00,,,0.00,,2013-03-15 11:52:00,
2013-03-15 04:02:00,22.0,16.0,29.79,East,92,2.0,8.0,76,0.00,,,0.00,,2013-03-15 12:02:00,
2013-03-15 04:12:00,22.0,16.0,29.79,East,92,2.0,8.0,76,0.00,,,0.00,,2013-03-15 12:12:00,
2013-03-15 04:22:00,22.0,16.0,29.80,East,101,2.0,8.0,76,0.00,,,0.00,,2013-03-15 12:22:00,
2013-03-15 04:32:00,21.0,15.0,29.79,East,101,1.0,6.0,77,0.00,,,0.00,,2013-03-15 12:32:00,
2013-03-15 04:42:00,21.0,15.0,29.79,East,101,1.0,6.0,77,0.00,,,0.00,,2013-03-15 12:42:00,
2013-03-15 04:52:00,21.0,15.0,29.79,East,101,1.0,6.0,77,0.00,,,0.00,,2013-03-15 12:52:00,
2013-03-15 05:02:00,20.0,14.0,29.79,East,101,0.0,2.0,78,0.00,,,0.00,,2013-03-15 13:02:00,
2013-03-15 05:12:00,20.0,14.0,29.79,East,101,0.0,2.0,78,0.00,,,0.00,,2013-03-15 13:12:00,
2013-03-15 05:22:00,19.0,14.0,29.78,ESE,116,0.0,2.0,79,0.00,,,0.00,,2013-03-15 13:22:00,
2013-03-15 05:32:00,16.0,11.0,29.79,ESE,116,0.0,0.0,80,0.00,,,0.00,,2013-03-15 13:32:00,
2013-03-15 05:42:00,16.0,11.0,29.79,ESE,116,0.0,0.0,80,0.00,,,0.00,,2013-03-15 13:42:00,
2013-03-15 05:52:00,16.0,11.0,29.79,ESE,116,0.0,0.0,80,0.00,,,0.00,,2013-03-15 13:52:00,
2013-03-15 06:02:00,13.0,9.0,29.78,East,96,1.0,2.0,83,0.00,,,0.00,,2013-03-15 14:02:00,
2013-03-15 06:22:00,13.0,10.0,29.78,East,96,0.0,3.0,86,0.00,,,0.00,,2013-03-15 14:22:00,
2013-03-15 06:32:00,12.0,9.0,29.77,East,85,1.0,3.0,86,0.00,,,0.00,,2013-03-15 14:32:00,
2013-03-15 06:42:00,12.0,9.0,29.77,East,85,1.0,3.0,86,0.00,,,0.00,,2013-03-15 14:42:00,
2013-03-15 06:52:00,13.0,10.0,29.77,East,85,0.0,5.0,89,0.00,,,0.00,,2013-03-15 14:52:00,
2013-03-15 07:02:00,15.0,11.0,29.78,East,82,0.0,5.0,85,0.00,,,0.00,,2013-03-15 15:02:00,
2013-03-15 07:12:00,15.0,11.0,29.78,East,82,0.0,5.0,85,0.00,,,0.00,,2013-03-15 15:12:00,
2013-03-15 07:22:00,14.0,10.0,29.78,East,82,0.0,1.0,82,0.00,,,0.00,,2013-03-15 15:22:00,
2013-03-15 07:32:00,12.0,8.0,29.77,East,81,0.0,1.0,84,0.00,,,0.00,,2013-03-15 15:32:00,
2013-03-15 07:42:00,12.0,8.0,29.77,East,82,0.0,1.0,84,0.00,,,0.00,,2013-03-15 15:42:00,
2013-03-15 07:52:00,12.0,8.0,29.77,East,82,0.0,1.0,84,0.00,,,0.00,,2013-03-15 15:52:00,
2013-03-15 08:02:00,11.0,7.0,29.77,East,82,0.0,1.0,85,0.00,,,0.00,,2013-03-15 16:02:00,
2013-03-15 08:12:00,10.0,7.0,29.76,East,81,0.0,0.0,86,0.00,,,0.00,,2013-03-15 16:12:00,
2013-03-15 08:22:00,10.0,7.0,29.76,East,81,0.0,0.0,86,0.00,,,0.00,,2013-03-15 16:22:00,
2013-03-15 08:32:00,9.0,5.0,29.77,East,81,0.0,0.0,85,0.00,,,0.00,,2013-03-15 16:32:00,
2013-03-15 08:52:00,8.0,4.0,29.77,East,82,0.0,0.0,85,0.00,,,0.00,,2013-03-15 16:52:00,
2013-03-15 09:01:00,7.0,4.0,29.76,East,81,0.0,0.0,87,0.00,,,0.00,,2013-03-15 17:01:00,
2013-03-15 09:22:00,6.0,3.0,29.76,East,81,0.0,0.0,86,0.00,,,0.00,,2013-03-15 17:22:00,
2013-03-15 09:32:00,6.0,3.0,29.76,East,82,0.0,1.0,87,0.00,,,0.00,,2013-03-15 17:32:00,
2013-03-15 09:42:00,6.0,3.0,29.76,East,82,0.0,1.0,87,0.00,,,0.00,,2013-03-15 17:42:00,
2013-03-15 09:52:00,6.0,3.0,29.75,East,82,0.0,2.0,88,0.00,,,0.00,,2013-03-15 17:52:00,
2013-03-15 10:02:00,9.0,7.0,29.75,East,81,1.0,3.0,91,0.00,,,0.00,,2013-03-15 18:02:00,
2013-03-15 10:11:00,9.0,7.0,29.75,East,81,1.0,3.0,91,0.00,,,0.00,,2013-03-15 18:11:00,
2013-03-15 10:21:00,11.0,9.0,29.75,East,101,0.0,5.0,93,0.00,,,0.00,,2013-03-15 18:21:00,
2013-03-15 10:32:00,14.0,11.0,29.75,SE,128,0.0,3.0,89,0.00,,,0.00,,2013-03-15 18:32:00,
2013-03-15 10:42:00,14.0,11.0,29.75,SE,128,0.0,3.0,89,0.00,,,0.00,,2013-03-15 18:42:00,
2013-03-15 10:52:00,17.0,12.0,29.75,ESE,111,2.0,5.0,81,0.00,,,0.00,,2013-03-15 18:52:00,
2013-03-15 11:02:00,20.0,13.0,29.75,East,95,1.0,3.0,75,0.00,,,0.00,,2013-03-15 19:02:00,
2013-03-15 11:12:00,20.0,13.0,29.75,East,95,1.0,3.0,75,0.00,,,0.00,,2013-03-15 19:12:00,
2013-03-15 11:22:00,22.0,14.0,29.75,ESE,105,2.0,7.0,71,0.00,,,0.00,,2013-03-15 19:22:00,
2013-03-15 11:32:00,24.0,14.0,29.75,East,86,2.0,7.0,65,0.00,,,0.00,,2013-03-15 19:32:00,
2013-03-15 11:41:00,24.0,14.0,29.75,East,86,2.0,7.0,65,0.00,,,0.00,,2013-03-15 19:41:00,
2013-03-15 11:52:00,24.0,14.0,29.75,East,86,2.0,7.0,65,0.00,,,0.00,,2013-03-15 19:52:00,
2013-03-15 12:02:00,27.0,15.0,29.74,ESE,108,4.0,6.0,60,0.00,,,0.00,,2013-03-15 20:02:00,
2013-03-15 12:11:00,27.0,15.0,29.74,ESE,108,4.0,6.0,60,0.00,,,0.00,,2013-03-15 20:11:00,
2013-03-15 12:22:00,28.0,16.0,29.74,ESE,103,2.0,6.0,59,0.00,,,0.00,,2013-03-15 20:22:00,
2013-03-15 12:31:00,28.0,16.0,29.74,ESE,103,2.0,6.0,59,0.00,,,0.00,,2013-03-15 20:31:00,
2013-03-15 12:41:00,28.0,16.0,29.74,ESE,103,2.0,6.0,59,0.00,,,0.00,,2013-03-15 20:41:00,
2013-03-15 12:51:00,28.0,16.0,29.74,ESE,103,2.0,6.0,59,0.00,,,0.00,,2013-03-15 20:51:00,
2013-03-15 13:02:00,30.0,12.0,29.73,ENE,69,6.0,13.0,47,0.01,,,0.01,,2013-03-15 21:02:00,
2013-03-15 13:12:00,30.0,12.0,29.73,ENE,69,6.0,13.0,47,0.01,,,0.01,,2013-03-15 21:12:00,
2013-03-15 13:22:00,30.0,12.0,29.73,ENE,70,4.0,12.0,46,0.01,,,0.01,,2013-03-15 21:22:00,
2013-03-15 13:32:00,31.0,12.0,29.73,East,96,6.0,12.0,44,0.01,,,0.02,,2013-03-15 21:32:00,
2013-03-15 13:42:00,31.0,12.0,29.73,East,96,6.0,12.0,44,0.01,,,0.02,,2013-03-15 21:42:00,
2013-03-15 13:52:00,31.0,11.0,29.73,ENE,58,5.0,10.0,43,0.01,,,0.02,,2013-03-15 21:52:00,
2013-03-15 14:03:00,32.0,12.0,29.74,ENE,64,2.0,10.0,43,0.02,,,0.03,,2013-03-15 22:03:00,
2013-03-15 14:12:00,32.0,12.0,29.74,ENE,64,2.0,10.0,43,0.02,,,0.03,,2013-03-15 22:12:00,
2013-03-15 14:22:00,32.0,10.0,29.73,NNE,33,4.0,10.0,40,0.02,,,0.03,,2013-03-15 22:22:00,
2013-03-15 14:32:00,32.0,10.0,29.74,East,80,6.0,12.0,40,0.01,,,0.03,,2013-03-15 22:32:00,
2013-03-15 14:42:00,32.0,10.0,29.74,East,80,6.0,12.0,40,0.01,,,0.03,,2013-03-15 22:42:00,
2013-03-15 14:52:00,32.0,10.0,29.74,NE,53,6.0,12.0,40,0.01,,,0.03,,2013-03-15 22:52:00,
2013-03-15 15:02:00,33.0,11.0,29.73,NE,40,6.0,14.0,39,0.01,,,0.04,,2013-03-15 23:02:00,
2013-03-15 15:12:00,33.0,11.0,29.73,NE,40,6.0,14.0,39,0.01,,,0.04,,2013-03-15 23:12:00,
2013-03-15 15:22:00,33.0,11.0,29.73,NE,53,6.0,12.0,39,0.01,,,0.04,,2013-03-15 23:22:00,
2013-03-15 15:32:00,33.0,11.0,29.73,East,88,4.0,12.0,40,0.01,,,0.04,,2013-03-15 23:32:00,
2013-03-15 15:42:00,33.0,11.0,29.73,East,88,4.0,12.0,40,0.01,,,0.04,,2013-03-15 23:42:00,
2013-03-15 15:52:00,33.0,10.0,29.73,NE,49,6.0,12.0,38,0.01,,,0.04,,2013-03-15 23:52:00,
2013-03-15 16:02:00,33.0,11.0,29.73,ENE,72,3.0,9.0,39,0.01,,,0.05,,2013-03-16 00:02:00,
2013-03-15 16:11:00,33.0,11.0,29.73,ENE,72,3.0,9.0,39,0.01,,,0.05,,2013-03-16 00:11:00,
2013-03-15 16:22:00,33.0,10.0,29.73,ENE,70,4.0,9.0,38,0.01,,,0.05,,2013-03-16 00:22:00,
2013-03-15 16:32:00,33.0,10.0,29.73,ENE,61,4.0,9.0,37,0.01,,,0.05,,2013-03-16 00:32:00,
2013-03-15 16:42:00,33.0,10.0,29.73,ENE,61,4.0,9.0,37,0.01,,,0.05,,2013-03-16 00:42:00,
2013-03-15 16:52:00,33.0,10.0,29.73,ENE,61,4.0,9.0,37,0.01,,,0.05,,2013-03-16 00:52:00,
2013-03-15 17:02:00,33.0,10.0,29.73,NE,52,2.0,10.0,37,0.00,,,0.05,,2013-03-16 01:02:00,
2013-03-15 17:12:00,33.0,10.0,29.73,NE,52,2.0,10.0,37,0.00,,,0.05,,2013-03-16 01:12:00,
2013-03-15 17:21:00,33.0,9.0,29.74,ENE,69,3.0,12.0,36,0.00,,,0.05,,2013-03-16 01:21:00,
2013-03-15 17:32:00,33.0,9.0,29.74,ESE,104,3.0,9.0,36,0.00,,,0.05,,2013-03-16 01:32:00,
2013-03-15 17:41:00,33.0,9.0,29.74,ESE,104,3.0,9.0,36,0.00,,,0.05,,2013-03-16 01:41:00,
2013-03-15 17:52:00,33.0,9.0,29.75,East,88,2.0,7.0,36,0.00,,,0.05,,2013-03-16 01:52:00,
2013-03-15 18:02:00,33.0,9.0,29.74,ESE,103,2.0,7.0,36,0.00,,,0.05,,2013-03-16 02:02:00,
2013-03-15 18:11:00,33.0,9.0,29.74,ESE,103,2.0,7.0,36,0.00,,,0.05,,2013-03-16 02:11:00,
2013-03-15 18:22:00,33.0,9.0,29.74,ESE,103,2.0,7.0,36,0.00,,,0.05,,2013-03-16 02:22:00,
2013-03-15 18:32:00,33.0,9.0,29.75,ENE,61,2.0,5.0,36,0.00,,,0.05,,2013-03-16 02:32:00,
2013-03-15 18:42:00,33.0,9.0,29.75,ENE,61,2.0,5.0,36,0.00,,,0.05,,2013-03-16 02:42:00,
2013-03-15 18:52:00,33.0,9.0,29.75,ENE,61,2.0,5.0,36,0.00,,,0.05,,2013-03-16 02:52:00,
2013-03-15 19:02:00,31.0,20.0,29.75,NNW,347,1.0,5.0,62,0.00,,,0.05,,2013-03-16 03:02:00,
2013-03-15 19:21:00,31.0,19.0,29.75,NNW,347,1.0,3.0,60,0.00,,,0.05,,2013-03-16 03:21:00,
2013-03-15 19:32:00,30.0,15.0,29.75,North,7,1.0,3.0,53,0.00,,,0.05,,2013-03-16 03:32:00,
2013-03-15 19:42:00,30.0,15.0,29.75,North,7,1.0,3.0,53,0.00,,,0.05,,2013-03-16 03:42:00,
2013-03-15 19:52:00,30.0,9.0,29.75,NNE,26,1.0,3.0,40,0.00,,,0.05,,2013-03-16 03:52:00,
2013-03-15 20:02:00,29.0,10.0,29.75,NNE,26,0.0,2.0,45,0.00,,,0.05,,2013-03-16 04:02:00,
2013-03-15 20:12:00,29.0,10.0,29.75,NNE,26,0.0,2.0,45,0.00,,,0.05,,2013-03-16 04:12:00,
2013-03-15 20:22:00,27.0,11.0,29.76,NNE,26,0.0,1.0,51,0.00,,,0.05,,2013-03-16 04:22:00,
2013-03-15 20:32:00,26.0,10.0,29.76,NNE,26,0.0,1.0,51,0.00,,,0.05,,2013-03-16 04:32:00,
2013-03-15 20:42:00,26.0,10.0,29.76,NNE,26,0.0,1.0,51,0.00,,,0.05,,2013-03-16 04:42:00,
2013-03-15 20:52:00,23.0,8.0,29.77,NNE,26,0.0,1.0,53,0.00,,,0.05,,2013-03-16 04:52:00,
2013-03-15 21:02:00,23.0,10.0,29.77,NNE,26,0.0,1.0,56,0.00,,,0.05,,2013-03-16 05:02:00,
2013-03-15 21:12:00,23.0,10.0,29.77,NNE,26,0.0,1.0,56,0.00,,,0.05,,2013-03-16 05:12:00,
2013-03-15 21:21:00,22.0,10.0,29.78,NNE,26,0.0,1.0,59,0.00,,,0.05,,2013-03-16 05:21:00,
2013-03-15 21:32:00,21.0,10.0,29.78,NNE,26,0.0,1.0,63,0.00,,,0.05,,2013-03-16 05:32:00,
2013-03-15 21:42:00,21.0,10.0,29.78,NNE,26,0.0,1.0,63,0.00,,,0.05,,2013-03-16 05:42:00,
2013-03-15 21:52:00,20.0,10.0,29.78,East,80,0.0,2.0,65,0.00,,,0.05,,2013-03-16 05:52:00,
2013-03-15 22:02:00,20.0,11.0,29.79,East,80,0.0,1.0,69,0.00,,,0.05,,2013-03-16 06:02:00,
2013-03-15 22:12:00,20.0,11.0,29.79,East,80,0.0,1.0,69,0.00,,,0.05,,2013-03-16 06:12:00,
2013-03-15 22:21:00,19.0,11.0,29.79,East,80,0.0,2.0,72,0.00,,,0.05,,2013-03-16 06:21:00,
2013-03-15 22:32:00,18.0,11.0,29.80,East,80,0.0,0.0,72,0.00,,,0.05,,2013-03-16 06:32:00,
2013-03-15 22:41:00,18.0,11.0,29.80,East,80,0.0,0.0,72,0.00,,,0.05,,2013-03-16 06:41:00,
2013-03-15 22:52:00,18.0,11.0,29.81,East,80,0.0,0.0,74,0.00,,,0.05,,2013-03-16 06:52:00,
2013-03-15 23:01:00,16.0,9.0,29.81,East,80,0.0,0.0,75,0.00,,,0.05,,2013-03-16 07:01:00,
2013-03-15 23:11:00,16.0,9.0,29.81,East,80,0.0,0.0,75,0.00,,,0.05,,2013-03-16 07:11:00,
2013-03-15 23:22:00,15.0,9.0,29.81,East,80,0.0,1.0,77,0.00,,,0.05,,2013-03-16 07:22:00,
2013-03-15 23:32:00,15.0,9.0,29.81,East,80,0.0,1.0,77,0.00,,,0.05,,2013-03-16 07:32:00,
2013-03-15 23:42:00,15.0,9.0,29.81,East,80,0.0,1.0,77,0.00,,,0.05,,2013-03-16 07:42:00,
2013-03-15 23:52:00,14.0,9.0,29.82,East,80,0.0,0.0,79,0.00,,,0.05,,2013-03-16 07:52:00,